sat.trackr.live / text

‹ back to catalog

STARLINK-3113

NORAD 49735 · 2021-115M

PAYLOAD ACTIVE UNKNOWN

§ Identity

Operator
Country
US
Launch date
2021-12-02
Launch site
AFETR
Launch vehicle
Mass (kg)
RCS (m²)

Purposes: comms

External: N2YO · Heavens-Above · Gunter

§ Orbital elements

Epoch: 2026-05-25T01:58:15.276000Z

Period
95.44 min
Inclination
53.2137°
Eccentricity
0.0001298
Mean motion
15.08848687 rev/d
Perigee alt
538.8 km
Apogee alt
540.6 km
Semi-major
6,917.9 km
B*
8.7497e-5
RAAN
176.0666°
Arg perigee
74.1667°
Mean anomaly
285.9468°
Rev number
24,692

§ Raw data

STARLINK-31131 49735U 21115M   26145.08212125  .00001105  00000+0  87497-4 0  99922 49735  53.2137 176.0666 0001298  74.1667 285.9468 15.08848687246924

JSON: /api/v1/satellites/49735 · /tle

For live sub-satellite position, see the globe view (requires WebGL).

§ Visibility from observer

Set your observer location to see the next 7 days of passes ≥ 10°. The values pass through the URL so the page stays shareable.

No JS? Fill the form by hand. The geolocation button needs JavaScript.